This is the latest recevied weather packets stored in our database for station/object DC4XK-10. If no packets are shown the sender has not sent any weather packets the latest 10 day(s).
| Time | Temp. | Humidity | Pressure | Rain* | Wind** | Luminosity | Snow |
|---|---|---|---|---|---|---|---|
| 1777631331 | 21.67° C | 39% | 1027.3 hPa | 0 mm | 0.45 m/s, 152° | - | - |
| 1777630732 | 21.67° C | 37% | 1027.3 hPa | 0 mm | 3.13 m/s, 180° | - | - |
| 1777630130 | 21.11° C | 40% | 1027.4 hPa | 0 mm | 0 m/s | - | - |
| 1777629531 | 20.56° C | 41% | 1027.3 hPa | 0 mm | 0 m/s | - | - |
| 1777628933 | 21.11° C | 40% | 1027.6 hPa | 0 mm | 1.79 m/s, 186° | - | - |
| 1777628330 | 18.89° C | 44% | 1027.6 hPa | 0 mm | 0.45 m/s, 197° | - | - |
| 1777627731 | 20° C | 41% | 1027.7 hPa | 0 mm | 0 m/s | - | - |
| 1777627134 | 18.89° C | 45% | 1027.7 hPa | 0 mm | 0 m/s | - | - |
| 1777626530 | 18.33° C | 48% | 1027.9 hPa | 0 mm | 0 m/s | - | - |
| 1777625931 | 17.22° C | 52% | 1028 hPa | 0 mm | 0 m/s | - | - |
| 1777625332 | 16.67° C | 53% | 1027.9 hPa | 0 mm | 0 m/s | - | - |
| 1777624730 | 16.67° C | 52% | 1027.9 hPa | 0 mm | 0 m/s | - | - |
| 1777624131 | 17.22° C | 52% | 1027.9 hPa | 0 mm | 0 m/s | - | - |
| 1777623530 | 17.22° C | 53% | 1028 hPa | 0 mm | 0 m/s | - | - |
| 1777622930 | 16.11° C | 53% | 1028.3 hPa | 0 mm | 0 m/s | - | - |
| 1777622331 | 15.56° C | 57% | 1028.4 hPa | 0 mm | 0 m/s | - | - |
| 1777621730 | 15° C | 57% | 1028.2 hPa | 0 mm | 0 m/s | - | - |
| 1777621131 | 15° C | 55% | 1028.4 hPa | 0 mm | 0 m/s | - | - |
| 1777620531 | 13.89° C | 53% | 1028.2 hPa | 0 mm | 0 m/s | - | - |
| 1777619930 | 13.89° C | 59% | 1028.2 hPa | 0 mm | 0 m/s | - | - |
| 1777619331 | 12.78° C | 68% | 1028.2 hPa | 0 mm | 0 m/s | - | - |
| 1777618731 | 12.22° C | 74% | 1028.2 hPa | 0 mm | 0 m/s | - | - |
| 1777618130 | 11.67° C | 75% | 1028.1 hPa | 0 mm | 0 m/s | - | - |
| 1777617531 | 11.67° C | 79% | 1028.2 hPa | 0 mm | 0 m/s | - | - |
| 1777616933 | 10° C | 86% | 1028.3 hPa | 0 mm | 0 m/s | - | - |
* Rain latest hour (hover to see other rain measurements)
** Current wind speed in m/s (hover to see current wind gust speed)